Regional Weather Roundup
Issued by NWS

Home | Current Version | Previous Version | Text Only | Print | Product List | Glossary Off
Versions: 1 2 3 4 5 6 7 8 9 10 11 12 13 14 15 16 17 18 19 20 21 22 23 24 25 26 27 28 29 30 31 32 33 34 35 36 37 38 39 40 41 42 43 44 45 46 47 48 49 50

585
ASUS43 KLOT 232209
RWRIL

ILLINOIS REGIONAL WEATHER ROUNDUP
NATIONAL WEATHER SERVICE CHICAGO/ROMEOVILLE IL
500 PM CDT MON OCT 23 2017

NOTE: "FAIR" INDICATES FEW OR NO CLOUDS BELOW 12,000 FEET WITH NO
SIGNIFICANT WEATHER AND/OR OBSTRUCTIONS TO VISIBILITY.

* THESE STATIONS ARE NOT UNDER NWS QUALITY CONTROL. THEY ALSO MAY NOT
  REPORT WEATHER SUCH AS PRECIPITATION OR FOG.

ILZ001-002-007-009-015-016-024-232300-
NORTHWEST ILLINOIS

CITY           SKY/WX    TMP DP  RH WIND       PRES   REMARKS
MOLINE         CLOUDY    59  44  57 NW12      29.74F
STERLING*      PTSUNNY   57  47  69 W13         N/A
SAVANNA*       CLOUDY    59  45  59 NW7       29.73F
$$

ILZ003-004-008-010-011-017-018-232300-
NORTH CENTRAL ILLINOIS

CITY           SKY/WX    TMP DP  RH WIND       PRES   REMARKS
ROCKFORD       CLOUDY    55  46  71 W5        29.72F
FREEPORT*      CLOUDY    57  45  65 W10       29.73F
ROCHELLE*      PTSUNNY   55  45  68 W8        29.71F
DE KALB*       CLOUDY    52  45  76 W6        29.70F
PERU*          CLOUDY    53  45  73 W7        29.72F
$$

ILZ005-006-012>014-019>023-232300-
NORTHEAST ILLINOIS

CITY           SKY/WX    TMP DP  RH WIND       PRES   REMARKS
CHICAGO-OHARE  CLOUDY    53  47  79 W10       29.68F
CHICAGO-MIDWAY CLOUDY    53  50  89 W9        29.68F
AURORA         CLOUDY    52  47  83 W5        29.69F
LANSING*       CLOUDY    52  51  96 W7        29.68F
JOLIET*        CLOUDY    54  51  92 W5        29.69F
WAUKEGAN       CLOUDY    52  50  93 CALM      29.67F
DUPAGE AIRPORT CLOUDY    52  50  93 W6        29.68F
KANKAKEE*      CLOUDY    51  50  98 W7        29.71R
WHEELING       CLOUDY    54  50  86 W6        29.69F
MORRIS*        CLOUDY    53  47  82 W6        29.69F
ROMEOVILLE*    CLOUDY    52  49  91 W7        29.68F
NORTHERLY ISL    N/A     53  48  83 W9          N/A
$$

LMZ740>746-232300-
SOUTHERN LAKE MICHIGAN

STATION/POSITION SKY/WX   TEMP    WIND        PRES    VSBY  WAVE
                          AIR SEA DIR/SP/G                  HT/PER
                          (F)     (DEG/KT/KT) (MB)    (MI)  (FT/S)
SOUTHERN BUOY              54 60  350/ 17/ 19 1004.5          3/ 4
WILMETTE HARBOR            53 57  290/ 10/ 14   N/A           3/ 5
HARRISON CRIB              54     290/ 11/ 12   N/A
BURNHAM HARBOR             53     260/  9/ 10   N/A
CALUMET HARBOR             53     280/  5/  8 1004.4F
BURNS HARBOR               54     310/ 17/ 20 1004.7F
MICHIGAN CITY              54     300/ 21/ 25   N/A
MICHIGAN CITY 6N           54 57  320/ 17/ 23   N/A           7/ 5
ST. JOSEPH                 54 58  350/ 21/ 27 1003.3          6/ 5
$$

ILZ025>027-034>036-040-047-049-050-058-095>099-232300-
WEST-CENTRAL ILLINOIS

CITY           SKY/WX    TMP DP  RH WIND       PRES   REMARKS
QUINCY         LGT RAIN  56  46  69 NW13G24   29.82R
MACOMB*        CLOUDY    59  44  57 NW16      29.80R
JACKSONVILLE*  CLOUDY    62  44  51 W24G33    29.77R
PITTSFIELD*    MOSUNNY   62  44  52 NW13G20   29.81R
$$

ILZ028>032-037-038-041>044-048-051>054-059>061-232300-
CENTRAL ILLINOIS

CITY           SKY/WX    TMP DP  RH WIND       PRES   REMARKS
PONTIAC        CLOUDY    54  50  85 W3        29.72F
BLOOMINGTON    CLOUDY    54  44  69 SW6       29.73F
DECATUR        CLOUDY    54  46  74 S6        29.75F
PEORIA         CLOUDY    62  46  55 W16G25    29.73S
LACON*         CLOUDY    57  47  69 CALM      29.72S
LINCOLN*       CLOUDY    61  49  63 CALM      29.73F
SPRINGFIELD    MOSUNNY   67  44  43 SW6       29.73F
TAYLORVILLE    CLOUDY    60  46  60 S5        29.75F
$$

ILZ033-039-045-046-055>057-062-063-232300-
EAST-CENTRAL ILLINOIS

CITY           SKY/WX    TMP DP  RH WIND       PRES   REMARKS
DANVILLE*      CLOUDY    51  50  95 W6        29.69F
RANTOUL*       MOSUNNY   55  51  89 W6        29.72F
MATTOON        CLOUDY    52  52 100 W6        29.75S
PARIS*         CLOUDY    51  50  95 W5        29.74F
$$

ILZ079-100>102-232300-
SOUTHWEST ILLINOIS

CITY           SKY/WX    TMP DP  RH WIND       PRES   REMARKS
ALTON          MOSUNNY   66  46  48 W7        29.77F
CAHOKIA*       SUNNY     71  43  36 SW5       29.78S
SPARTA*        SUNNY     66  44  43 S5        29.80S
$$

ILZ064>066-069>071-074>076-080>082-084>086-088>090-092>094-232300-
SOUTH-CENTRAL ILLINOIS

CITY           SKY/WX    TMP DP  RH WIND       PRES   REMARKS
CARBONDALE     SUNNY     65  45  48 S6        29.80F
CAIRO*         SUNNY     65  46  49 S7        29.84S
EFFINGHAM*     MOSUNNY   55  50  83 SW3       29.80S
MARION         MOSUNNY   63  50  63 S9        29.82F
MT. VERNON     MOSUNNY   60  47  61 SW9       29.81S
CENTRALIA*     MOSUNNY   62  47  57 CALM      29.79S
SALEM*         MOSUNNY   62  44  52 SW5       29.79F
METROPOLIS*    SUNNY     65  43  44 SW7       29.85S
$$

ILZ067-068-072-073-078-083-087-091-232300-
SOUTHEAST ILLINOIS

CITY           SKY/WX    TMP DP  RH WIND       PRES   REMARKS
LAWRENCEVILLE  LGT RAIN  53  32  44 NW7       29.78F
FLORA*         CLOUDY    60  43  54 W6        29.80S
FAIRFIELD*     MOSUNNY   58  44  60 SW3       29.80S
HARRISBURG*    MOSUNNY   60  46  58 NW9       29.84S
ROBINSON*      LGT RAIN  51  48  89 W5        29.77F
CARMI*         CLOUDY    58  46  65 W8        29.81S
$$

ABBREVIATIONS USED IN REMARKS
   TC - TEMPERATURE IN CELSIUS
  WCI - WIND CHILL INDEX
   HX - HEAT INDEX
  VSB - VISIBILITY
$$





USA.gov is the U.S. government's official web portal to all federal, state and local government web resources and services.